Change the Weather History Date:

Thursday, October 21, 2010

  Actual Average Record
Temperature  
Mean Temperature 47 °F -  
Max Temperature 57 °F 60 °F 82 °F (2007)
Min Temperature 37 °F 36 °F 27 °F (1989)
Degree Days  
Heating Degree Days 18    
Moisture  
Dew Point 31 °F    
Average Humidity 55    
Maximum Humidity 93    
Minimum Humidity 27    
Precipitation  
Precipitation 0.00 in - - ()
Sea Level Pressure  
Sea Level Pressure 29.93 in    
Wind  
Wind Speed 7 mph (WNW)    
Max Wind Speed 18 mph    
Max Gust Speed 26 mph    
Visibility 10 miles    
Events      
Averages and records for this station are not official NWS values.
T = Trace of Precipitation, MM = Missing Value Source: NWS Daily Summary

Daily Weather History Graph

Daily Weather History Graph

Search for Another Location

Airport or City:

Trip Planner

Search our weather history database for the weather conditions in past years. The results will help you decide how hot, cold, wet, or windy it might be!

Date:

Astronomy

Oct. 21, 2010 Rise Set
Actual Time 7:09 AM CDT 6:01 PM CDT
Civil Twilight 6:41 AM CDT 6:29 PM CDT
Nautical Twilight 6:09 AM CDT 7:01 PM CDT
Astronomical Twilight 5:37 AM CDT 7:33 PM CDT
Moon 5:02 PM CDT (10/21) 5:49 AM CDT (10/21)
Length of Visible Light 11h 48m
Length of Day
10h 52m
Waxing Gibbous, 98% of the Moon is Illuminated
Oct 21
Waxing Gibbous
Oct 22
Full
Oct 30
Last Quarter
Nov 5
New
Nov 13
First Quarter

Hourly Weather History & Observations

Time (CDT) Temp. Windchill Dew Point Humidity Pressure Visibility Wind Dir Wind Speed Gust Speed Precip Events Conditions
12:02 AM - - - N/A% 29.77 in 10.0 mi North 6.9 mph - N/A   Clear
12:22 AM 55.4 °F - 41.0 °F 58% 29.79 in 10.0 mi NNE 11.5 mph - N/A   Clear
12:42 AM 53.6 °F - 42.8 °F 67% 29.79 in 10.0 mi NNE 8.1 mph - N/A   Clear
1:02 AM 51.8 °F - 42.8 °F 71% 29.80 in 10.0 mi NNE 5.8 mph - N/A   Clear
1:22 AM 48.2 °F - 41.0 °F 76% 29.80 in 10.0 mi NNE 4.6 mph - N/A   Clear
1:42 AM 48.2 °F - 42.8 °F 82% 29.82 in - Calm Calm - N/A   Clear
2:02 AM 48.2 °F - 41.0 °F 76% 29.82 in - Calm Calm - N/A   Clear
2:22 AM 44.6 °F - 39.2 °F 81% 29.82 in 10.0 mi Calm Calm - N/A   Unknown
2:42 AM 39.2 °F 37.0 °F 37.4 °F 93% 29.83 in 10.0 mi WSW 3.5 mph - N/A   Clear
3:02 AM 41.0 °F 39.0 °F 37.4 °F 87% 29.84 in 10.0 mi West 3.5 mph - N/A   Unknown
3:22 AM 42.8 °F - 37.4 °F 81% 29.84 in 10.0 mi North - - N/A   Clear
3:42 AM 44.6 °F 43.1 °F - N/A% 29.84 in 10.0 mi NW 3.5 mph - N/A   Clear
4:02 AM 41.0 °F 38.0 °F 35.6 °F 81% 29.85 in 10.0 mi West 4.6 mph - N/A   Clear
4:23 AM 39.2 °F 35.0 °F 35.6 °F 87% 29.86 in 10.0 mi West 5.8 mph - N/A   Clear
4:42 AM 39.2 °F 35.9 °F 33.8 °F 81% 29.86 in 10.0 mi West 4.6 mph - N/A   Clear
5:02 AM 39.2 °F 35.9 °F 33.8 °F 81% 29.88 in 10.0 mi West 4.6 mph - N/A   Clear
5:22 AM 39.2 °F 35.0 °F 33.8 °F 81% 29.89 in 10.0 mi West 5.8 mph - N/A   Clear
5:42 AM 37.4 °F 33.8 °F 33.8 °F 87% 29.90 in 10.0 mi West 4.6 mph - N/A   Clear
6:02 AM 37.4 °F 32.8 °F 33.8 °F 87% 29.91 in 10.0 mi West 5.8 mph - N/A   Clear
6:22 AM 37.4 °F 32.8 °F 33.8 °F 87% 29.91 in 10.0 mi North 5.8 mph - N/A   Clear
6:42 AM 39.2 °F 35.9 °F 33.8 °F 81% 29.92 in 10.0 mi West 4.6 mph - N/A   Clear
7:02 AM 37.4 °F 32.8 °F 33.8 °F 87% 29.92 in 10.0 mi West 5.8 mph - N/A   Clear
7:22 AM 37.4 °F 33.8 °F 33.8 °F 87% 29.93 in 10.0 mi West 4.6 mph - N/A   Clear
7:42 AM 37.4 °F 33.8 °F 33.8 °F 87% 29.94 in 10.0 mi WSW 4.6 mph - N/A   Clear
8:02 AM 39.2 °F 35.0 °F 33.8 °F 81% 29.95 in 10.0 mi West 5.8 mph - N/A   Clear
8:22 AM 42.8 °F 38.6 °F 35.6 °F 76% 29.96 in 10.0 mi West 6.9 mph - N/A   Clear
8:42 AM 44.6 °F 40.7 °F 35.6 °F 71% 29.97 in 10.0 mi West 6.9 mph - N/A   Clear
9:02 AM 46.4 °F 43.5 °F 35.6 °F 66% 29.97 in 10.0 mi WNW 5.8 mph - N/A   Clear
9:22 AM 48.2 °F - 33.8 °F 58% 29.97 in 10.0 mi WNW 9.2 mph - N/A   Clear
9:42 AM 50.0 °F - 33.8 °F 54% 29.98 in 10.0 mi NW 6.9 mph - N/A   Clear
10:02 AM 51.8 °F - 30.2 °F 44% 29.98 in 10.0 mi NW 11.5 mph - N/A   Clear
10:23 AM 51.8 °F - 26.6 °F 38% 29.98 in 10.0 mi NW 11.5 mph 17.3 mph N/A   Clear
10:42 AM 53.6 °F - 24.8 °F 33% 29.98 in 10.0 mi NW 9.2 mph 17.3 mph N/A   Clear
11:02 AM 53.6 °F - 24.8 °F 33% 29.98 in 10.0 mi NW 13.8 mph 20.7 mph N/A   Clear
11:22 AM 53.6 °F - 24.8 °F 33% 29.99 in 10.0 mi NW 16.1 mph 21.9 mph N/A   Clear
11:42 AM 53.6 °F - 24.8 °F 33% 30.00 in 10.0 mi NW 15.0 mph 21.9 mph N/A   Clear
12:02 PM 55.4 °F - 26.6 °F 33% 30.00 in 10.0 mi NW 18.4 mph 24.2 mph N/A   Clear
12:22 PM 55.4 °F - 26.6 °F 33% 30.00 in 10.0 mi WNW 10.4 mph 26.5 mph N/A   Scattered Clouds
12:42 PM 57.2 °F - 26.6 °F 31% 29.99 in 10.0 mi West 16.1 mph 19.6 mph N/A   Scattered Clouds
1:02 PM 57.2 °F - 24.8 °F 29% 29.99 in 10.0 mi NW 12.7 mph 20.7 mph N/A   Scattered Clouds
1:22 PM 57.2 °F - 26.6 °F 31% 29.99 in 10.0 mi WNW 11.5 mph 18.4 mph N/A   Clear
1:42 PM 57.2 °F - 26.6 °F 31% 29.98 in 10.0 mi WNW 15.0 mph 21.9 mph N/A   Clear
2:03 PM 57.2 °F - 24.8 °F 29% 29.98 in 10.0 mi NW 12.7 mph 23.0 mph N/A   Clear
2:22 PM 57.2 °F - 24.8 °F 29% 29.98 in 10.0 mi NNW 9.2 mph 21.9 mph N/A   Clear
2:42 PM 57.2 °F - 23.0 °F 27% 29.98 in 10.0 mi NNW 11.5 mph 20.7 mph N/A   Clear
3:02 PM 57.2 °F - 23.0 °F 27% 29.98 in 10.0 mi NW 12.7 mph 19.6 mph N/A   Clear
3:22 PM 57.2 °F - 23.0 °F 27% - 10.0 mi WNW 12.7 mph 20.7 mph N/A   Clear
3:42 PM 57.2 °F - 23.0 °F 27% 29.98 in 10.0 mi WNW 10.4 mph 18.4 mph N/A   Clear
4:02 PM 57.2 °F - 23.0 °F 27% 29.98 in 10.0 mi WNW 12.7 mph 17.3 mph N/A   Clear
4:22 PM 57.2 °F - 23.0 °F 27% 29.99 in 10.0 mi NW 8.1 mph - N/A   Clear
4:42 PM 57.2 °F - 24.8 °F 29% 29.99 in 10.0 mi WNW 8.1 mph 12.7 mph N/A   Clear
5:02 PM 57.2 °F - 24.8 °F 29% 29.99 in 10.0 mi WNW 12.7 mph 16.1 mph N/A   Clear
5:22 PM 55.4 °F - 24.8 °F 31% 29.99 in 10.0 mi WNW 5.8 mph - N/A   Clear
5:43 PM 55.4 °F - 24.8 °F 31% 29.99 in 10.0 mi Calm Calm - N/A   Clear
6:02 PM 53.6 °F - 24.8 °F 33% 29.99 in 10.0 mi WNW 4.6 mph - N/A   Clear
6:22 PM 51.8 °F - 24.8 °F 35% 30.00 in 10.0 mi West 3.5 mph - N/A   Clear
6:43 PM 48.2 °F - 26.6 °F 43% 30.01 in 10.0 mi Calm Calm - N/A   Clear
7:02 PM 48.2 °F - 26.6 °F 43% 30.01 in 10.0 mi Calm Calm - N/A   Clear
7:22 PM 44.6 °F - 26.6 °F 49% 30.02 in 10.0 mi Calm Calm - N/A   Clear
7:42 PM 44.6 °F - 26.6 °F 49% 30.02 in 10.0 mi Calm Calm - N/A   Clear
8:02 PM 44.6 °F - 26.6 °F 49% 30.03 in 10.0 mi Calm Calm - N/A   Clear
8:22 PM 39.2 °F 37.0 °F 26.6 °F 61% 30.04 in 10.0 mi WSW 3.5 mph - N/A   Clear
8:42 PM 42.8 °F - 26.6 °F 53% 30.04 in 10.0 mi Calm Calm - N/A   Clear
9:02 PM 41.0 °F - 26.6 °F 57% 30.04 in 10.0 mi Calm Calm - N/A   Clear
9:22 PM 39.2 °F - 26.6 °F 61% 30.05 in 10.0 mi Calm Calm - N/A   Clear
9:42 PM 39.2 °F - 26.6 °F 61% 30.06 in 10.0 mi Calm Calm - N/A   Clear
10:02 PM 39.2 °F - 26.6 °F 61% 30.06 in 10.0 mi Calm Calm - N/A   Clear
10:22 PM 39.2 °F 37.0 °F 24.8 °F 56% 30.07 in 10.0 mi West 3.5 mph - N/A   Clear
10:42 PM 39.2 °F 37.0 °F 24.8 °F 56% 30.07 in 10.0 mi West 3.5 mph - N/A   Clear
11:02 PM 37.4 °F - 26.6 °F 65% 30.08 in 10.0 mi Calm Calm - N/A   Clear
11:22 PM 37.4 °F 33.8 °F 24.8 °F 60% 30.08 in 10.0 mi West 4.6 mph - N/A   Clear
11:42 PM 37.4 °F 34.9 °F 24.8 °F 60% 30.08 in 10.0 mi West 3.5 mph - N/A   Clear